Hot Springs, VA

9:01 PM EST on February 06, 2016 (GMT -0500)
Ingalls

Weather History for KHSP - January, 2012

Change the Weather History Date:

Saturday, January 14, 2012

  Actual Average Record
Temperature  
Mean Temperature 18 °F -  
Max Temperature 23 °F 31 °F 60 °F (2007)
Min Temperature 12 °F 17 °F 1 °F (1997)
Degree Days  
Heating Degree Days 48    
Moisture  
Dew Point 13 °F    
Average Humidity 86    
Maximum Humidity 100    
Minimum Humidity 68    
Precipitation  
Precipitation 0.00 in - - ()
Sea Level Pressure  
Sea Level Pressure 29.91 in    
Wind  
Wind Speed 20 mph (West)    
Max Wind Speed 28 mph    
Max Gust Speed 37 mph    
Visibility 7 miles    
Events Snow    
Averages and records for this station are not official NWS values.
T = Trace of Precipitation, MM = Missing Value Source: NWS Daily Summary

Daily Weather History Graph

Daily Weather History Graph

Search for Another Location

Airport or City:

Trip Planner

Search our weather history database for the weather conditions in past years. The results will help you decide how hot, cold, wet, or windy it might be!

Date:

Astronomy

Jan. 14, 2012 Rise Set
Actual Time 7:34 AM EST 5:22 PM EST
Civil Twilight 7:05 AM EST 5:51 PM EST
Nautical Twilight 6:33 AM EST 6:23 PM EST
Astronomical Twilight 6:01 AM EST 6:55 PM EST
Moon 11:34 PM EST (1/14) 10:25 AM EST (1/14)
Length of Visible Light 10h 45m
Length of Day
9h 47m
Waning Gibbous, 69% of the Moon is Illuminated
Jan 14
Waning Gibbous
Jan 16
Last Quarter
Jan 23
New
Jan 30
First Quarter
Feb 7
Full

Hourly Weather History & Observations

Time (EST) Temp. Windchill Dew Point Humidity Pressure Visibility Wind Dir Wind Speed Gust Speed Precip Events Conditions
12:17 AM 12.2 °F -8.6 °F 12.2 °F 100% 29.80 in 4.0 mi WNW 27.6 mph 34.5 mph N/A Snow Light Snow
12:35 AM 12.2 °F -8.6 °F 12.2 °F 100% 29.81 in 5.0 mi West 27.6 mph 35.7 mph N/A Snow Light Snow
12:55 AM 12.2 °F -7.5 °F 12.2 °F 100% 29.81 in 2.5 mi West 24.2 mph 32.2 mph N/A Snow Light Snow
1:15 AM 12.2 °F -7.5 °F 12.2 °F 100% 29.82 in 2.5 mi West 24.2 mph 34.5 mph N/A Snow Light Snow
1:35 AM 12.2 °F -7.1 °F 12.2 °F 100% 29.83 in 1.5 mi West 23.0 mph 28.8 mph N/A Snow Light Snow
1:57 AM 12.2 °F -6.7 °F 12.2 °F 100% 29.83 in 0.5 mi West 21.9 mph 27.6 mph N/A Snow Snow
2:15 AM 12.2 °F -8.2 °F 12.2 °F 100% 29.83 in 4.0 mi West 26.5 mph 33.4 mph N/A Snow Light Snow
2:35 AM 12.2 °F -6.3 °F 12.2 °F 100% 29.84 in 5.0 mi West 20.7 mph 29.9 mph N/A Snow Light Snow
2:55 AM 14.0 °F -4.3 °F 12.2 °F 93% 29.85 in 3.0 mi West 21.9 mph 31.1 mph N/A Snow Light Snow
3:15 AM 14.0 °F -4.3 °F 12.2 °F 93% 29.85 in 2.5 mi West 21.9 mph 28.8 mph N/A Snow Light Snow
3:35 AM 14.0 °F -3.9 °F 12.2 °F 93% 29.85 in 3.0 mi West 20.7 mph 29.9 mph N/A Snow Light Snow
3:57 AM 14.0 °F -4.7 °F 12.2 °F 93% 29.85 in 4.0 mi West 23.0 mph 31.1 mph N/A Snow Light Snow
4:15 AM 14.0 °F -3.4 °F 12.2 °F 93% 29.86 in 2.5 mi West 19.6 mph 25.3 mph N/A Snow Light Snow
4:35 AM 14.0 °F -3.0 °F 12.2 °F 93% 29.86 in 2.0 mi West 18.4 mph 25.3 mph N/A Snow Light Snow
4:55 AM 14.0 °F -3.0 °F 12.2 °F 93% 29.86 in 2.5 mi West 18.4 mph 27.6 mph N/A Snow Light Snow
5:15 AM 14.0 °F -3.4 °F 12.2 °F 93% 29.87 in 3.0 mi West 19.6 mph 28.8 mph N/A Snow Light Snow
5:35 AM 12.2 °F -6.7 °F 12.2 °F 100% 29.88 in 4.0 mi WNW 21.9 mph 28.8 mph N/A Snow Light Snow
5:57 AM 14.0 °F -3.4 °F 12.2 °F 93% 29.88 in 3.0 mi West 19.6 mph 28.8 mph N/A Snow Light Snow
6:15 AM 14.0 °F -3.4 °F 12.2 °F 93% 29.88 in 4.0 mi West 19.6 mph 27.6 mph N/A Snow Light Snow
6:35 AM 14.0 °F -3.0 °F 12.2 °F 93% 29.88 in 4.0 mi West 18.4 mph 26.5 mph N/A Snow Light Snow
6:55 AM 14.0 °F -3.4 °F 12.2 °F 93% 29.91 in 3.0 mi West 19.6 mph 25.3 mph N/A Snow Light Snow
7:15 AM 14.0 °F -4.3 °F 12.2 °F 93% 29.90 in 7.0 mi West 21.9 mph 26.5 mph N/A Snow Light Snow
7:35 AM 14.0 °F -4.3 °F 12.2 °F 93% 29.90 in 7.0 mi West 21.9 mph 28.8 mph N/A Snow Light Snow
7:57 AM 14.0 °F -5.5 °F 12.2 °F 93% 29.91 in 5.0 mi West 25.3 mph 31.1 mph N/A Snow Light Snow
8:15 AM 14.0 °F -5.1 °F 12.2 °F 93% 29.91 in 5.0 mi West 24.2 mph 29.9 mph N/A Snow Light Snow
8:35 AM 14.0 °F -4.7 °F 12.2 °F 93% 29.90 in 3.0 mi WNW 23.0 mph 36.8 mph N/A Snow Light Snow
8:55 AM 14.0 °F -5.1 °F 12.2 °F 93% 29.91 in 7.0 mi West 24.2 mph 32.2 mph N/A Snow Light Snow
9:15 AM 14.0 °F -5.1 °F 12.2 °F 93% 29.92 in 7.0 mi West 24.2 mph 32.2 mph N/A Snow Light Snow
9:35 AM 14.0 °F -4.7 °F 12.2 °F 93% 29.93 in 4.0 mi West 23.0 mph 32.2 mph N/A Snow Light Snow
10:15 AM 14.0 °F -3.0 °F 12.2 °F 93% 29.95 in 10.0 mi WNW 18.4 mph 27.6 mph N/A Snow Light Snow
10:35 AM 15.8 °F -0.2 °F 14.0 °F 93% 29.95 in 10.0 mi West 17.3 mph 23.0 mph N/A Snow Light Snow
10:55 AM 15.8 °F -0.2 °F 14.0 °F 93% 29.96 in 10.0 mi West 17.3 mph 23.0 mph N/A   Mostly Cloudy
11:15 AM 15.8 °F -0.6 °F 15.8 °F 100% 29.96 in 10.0 mi WNW 18.4 mph 27.6 mph N/A   Mostly Cloudy
11:57 AM 17.6 °F 3.7 °F 15.8 °F 93% 29.92 in 10.0 mi West 13.8 mph 19.6 mph N/A   Clear
12:15 PM 19.4 °F 5.5 °F 14.0 °F 80% 29.91 in 10.0 mi West 15.0 mph 24.2 mph N/A   Clear
12:35 PM 19.4 °F 5.0 °F 12.2 °F 74% 29.92 in 10.0 mi West 16.1 mph 26.5 mph N/A   Clear
12:55 PM 19.4 °F 7.2 °F 12.2 °F 74% 29.92 in 10.0 mi West 11.5 mph 19.6 mph N/A   Scattered Clouds
1:15 PM 21.2 °F 8.9 °F 14.0 °F 74% 29.92 in 10.0 mi West 12.7 mph 20.7 mph N/A   Scattered Clouds
1:35 PM 21.2 °F 7.8 °F 14.0 °F 74% 29.91 in 10.0 mi West 15.0 mph 20.7 mph N/A   Mostly Cloudy
1:55 PM 21.2 °F 9.5 °F 14.0 °F 74% 29.91 in 10.0 mi West 11.5 mph - N/A   Mostly Cloudy
2:15 PM 23.0 °F 14.7 °F 15.8 °F 74% 29.90 in 10.0 mi West 6.9 mph 19.6 mph N/A   Mostly Cloudy
2:35 PM 23.0 °F 9.6 °F 15.8 °F 74% 29.91 in 10.0 mi West 16.1 mph - N/A   Overcast
2:57 PM 23.0 °F 10.6 °F 14.0 °F 68% 29.92 in 10.0 mi West 13.8 mph 20.7 mph N/A   Mostly Cloudy
3:15 PM 21.2 °F 8.9 °F 14.0 °F 74% 29.93 in 10.0 mi West 12.7 mph - N/A   Overcast
3:35 PM 21.2 °F 9.5 °F 14.0 °F 74% 29.93 in 10.0 mi West 11.5 mph - N/A   Overcast
3:55 PM 23.0 °F 12.4 °F 14.0 °F 68% 29.93 in 10.0 mi West 10.4 mph - N/A   Overcast
4:15 PM 23.0 °F 11.1 °F 14.0 °F 68% 29.94 in 10.0 mi West 12.7 mph 17.3 mph N/A   Unknown
4:35 PM 21.2 °F 10.1 °F 14.0 °F 74% 29.94 in 10.0 mi West 10.4 mph 20.7 mph N/A   Overcast
4:55 PM 21.2 °F 7.3 °F 14.0 °F 74% 29.94 in 10.0 mi West 16.1 mph 20.7 mph N/A   Overcast
5:17 PM 21.2 °F 9.5 °F 12.2 °F 68% 29.94 in 10.0 mi West 11.5 mph 16.1 mph N/A   Overcast
5:35 PM 21.2 °F 9.5 °F - N/A% 29.94 in 10.0 mi West 11.5 mph - N/A   Overcast
5:55 PM 21.2 °F 8.9 °F 12.2 °F 68% 29.95 in 10.0 mi West 12.7 mph 16.1 mph N/A   Overcast
6:15 PM 21.2 °F 8.9 °F 12.2 °F 68% 29.95 in 10.0 mi West 12.7 mph 18.4 mph N/A   Overcast
6:37 PM 21.2 °F 10.9 °F 12.2 °F 68% 29.95 in 10.0 mi West 9.2 mph 17.3 mph N/A   Overcast
6:55 PM 19.4 °F 7.2 °F 12.2 °F 74% 29.95 in 10.0 mi West 11.5 mph - N/A   Unknown
7:16 PM 19.4 °F 6.6 °F 12.2 °F 74% 29.95 in 10.0 mi West 12.7 mph 20.7 mph N/A   Mostly Cloudy
7:36 PM 19.4 °F 6.0 °F 12.2 °F 74% 29.96 in 10.0 mi West 13.8 mph 18.4 mph N/A   Scattered Clouds
7:56 PM 19.4 °F 5.0 °F 12.2 °F 74% 29.96 in 10.0 mi West 16.1 mph - N/A   Scattered Clouds
8:16 PM 19.4 °F 5.5 °F 14.0 °F 80% 29.96 in 10.0 mi West 15.0 mph - N/A   Clear
8:36 PM 19.4 °F 6.0 °F 14.0 °F 80% 29.96 in 10.0 mi West 13.8 mph 21.9 mph N/A   Clear
8:57 PM 19.4 °F 5.0 °F 14.0 °F 80% 29.97 in 10.0 mi West 16.1 mph 20.7 mph N/A   Clear
9:16 PM 19.4 °F 5.0 °F 14.0 °F 80% 29.98 in 10.0 mi West 16.1 mph 23.0 mph N/A   Clear
9:36 PM 19.4 °F 4.5 °F 15.8 °F 86% 29.98 in 10.0 mi West 17.3 mph - N/A   Mostly Cloudy
9:56 PM 19.4 °F 5.5 °F 15.8 °F 86% 29.99 in 10.0 mi West 15.0 mph 21.9 mph N/A   Overcast
10:16 PM 19.4 °F 5.0 °F 15.8 °F 86% 29.98 in 10.0 mi West 16.1 mph 23.0 mph N/A   Overcast
10:37 PM 19.4 °F 4.1 °F 15.8 °F 86% 29.98 in 10.0 mi West 18.4 mph - N/A   Overcast
10:56 PM 19.4 °F 5.0 °F 15.8 °F 86% 29.98 in 10.0 mi West 16.1 mph 23.0 mph N/A   Overcast
11:16 PM 19.4 °F 4.5 °F 15.8 °F 86% 29.98 in 10.0 mi West 17.3 mph - N/A   Mostly Cloudy
11:37 PM 17.6 °F 3.7 °F 15.8 °F 93% 29.97 in 10.0 mi West 13.8 mph - N/A   Scattered Clouds
11:56 PM 17.6 °F 4.3 °F 15.8 °F 93% 29.97 in 10.0 mi West 12.7 mph - N/A   Clear